Regional Weather Roundup
Issued by NWS Sioux Falls, SD

Home | Current Version | Previous Version | Graphics & Text | Print | Product List | Glossary On
Versions: 1 2 3 4 5 6 7 8 9 10 11 12 13 14 15 16 17 18 19 20 21 22 23 24 25 26 27 28 29 30 31 32 33 34 35 36 37 38 39 40 41 42 43 44 45 46 47 48 49 50
154
ASUS43 KFSD 080110
RWRFSD

WEATHER ROUNDUP FOR SE SOUTH DAKOTA/SW MINNESOTA/NW IOWA
NATIONAL WEATHER SERVICE SIOUX FALLS SD
700 PM CST WED DEC 07 2016

NOTE: "FAIR" INDICATES FEW OR NO CLOUDS BELOW 12,000 FEET WITH NO
SIGNIFICANT WEATHER AND OR OBSTRUCTIONS TO VISIBILITY.


SDZ038>040-050-052>070-080200-
SOUTHEAST SOUTH DAKOTA

CITY           SKY/WX    TMP DP  RH WIND       PRES   REMARKS
BROOKINGS      CLEAR      8   3  80 NW23G30   30.24R WCI -13
CHAMBERLAIN    CLOUDY    13   4  67 NW23G33   30.42R WCI  -6
HURON          MIX PCPN  10   2  69 NW30G38   30.37R WCI -12
MADISON        FLURRIES   9   5  85 NW25G32   30.27R WCI -13
MITCHELL       CLOUDY    14   4  64 NW26G35   30.39R WCI  -6
SIOUX FALLS    PTCLDY    13   5  70 NW22G30   30.29R WCI  -6
WINNER         FAIR      11   1  64 NW18G28   30.43R WCI  -7
YANKTON        PTCLDY    16   3  57 W21G30    30.37R WCI  -2
$$

MNZ071-072-080-081-089-090-097-098-080200-
SOUTHWEST MINNESOTA

CITY           SKY/WX    TMP DP  RH WIND       PRES   REMARKS
FAIRMONT       FLURRIES  15   8  73 NW24G30   30.21R WCI  -4
JACKSON        CLOUDY    14   5  67 W24G31    30.22R WCI  -5
LUVERNE        PTCLDY    14   5  67 NW28G37   30.28R WCI  -6
MARSHALL       CLEAR     10   2  69 NW28G35   30.22  WCI -12
MONTEVIDEO     CLOUDY    14   5  67 NW18G28   30.23R WCI  -3
PIPESTONE      PTCLDY    10   3  72 NW26G33   30.23R WCI -11
REDWOOD FALLS  PTCLDY    13   3  64 W24G32    30.21R WCI  -7
TRACY          CLEAR     12   5  73 NW18G24   30.23S WCI  -6
WINDOM         CLEAR     12   3  67 W28G38    30.21R WCI  -9
WORTHINGTON    PTCLDY    12   6  77 W25G35    30.23R WCI  -8
$$

IAZ001>003-012>014-020>022-031-032-NEZ013-014-SDZ071-080200-
NORTHWEST IOWA

CITY           SKY/WX    TMP DP  RH WIND       PRES   REMARKS
CHEROKEE       CLEAR     16   7  67 W15G23    30.31R WCI   2
DENISON        MOCLDY    18   7  62 W14       30.31S WCI   4
ESTHERVILLE    CLOUDY    15   8  73 NW26G35   30.23R WCI  -4
LE MARS        MOCLDY    16   7  67 MISG      30.35R
ORANGE CITY    CLEAR     14   7  73 NW29      30.29R WCI  -7
SHELDON        MOCLDY    14   7  73 NW17G26   30.26R WCI  -3
SIOUX CITY     PTCLDY    19   6  57 NW21      30.37R WCI   3
SPENCER        CLEAR     15   6  67 W28G37    30.25R WCI  -5
STORM LAKE     MOCLDY    16   9  73 NW24      30.27R WCI  -3
$$

ABBREVIATIONS USED IN REMARKS
   TC - TEMPERATURE IN CELSIUS
  WCI - WIND CHILL INDEX
   HX - HEAT INDEX
  VSB - VISIBILITY





USA.gov is the U.S. government's official web portal to all federal, state and local government web resources and services.